Tracking 29777 objects as of 7-Oct-2024
HD Live streaming from Space Station
objects crossing your sky now

STARLINK-2197

Track STARLINK-2197 now!
10-day predictions
STARLINK-2197 is classified as:


NORAD ID: 47774
Int'l Code: 2021-017BE
Perigee: 553.3 km
Apogee: 555.2 km
Inclination: 53.1 °
Period: 95.6 minutes
Semi major axis: 6925 km
RCS: Unknown
Launch date: March 4, 2021
Source: United States (US)
Launch site: AIR FORCE EASTERN TEST RANGE (AFETR)
Your satellite tracking list
Your tracking list is empty




NASA's NSSDC Master Catalog

Two Line Element Set (TLE):
1 47774U 21017BE  24280.71594676  .00022907  00000-0  15500-2 0  9994
2 47774  53.0545  31.3788 0001398 106.9755 253.1388 15.06441967199379
Source of the keplerian elements: AFSPC